{"data":{"norad_id":65416,"epoch":"2026-09-20T17:22:07.041504Z","epoch_age_seconds":95532,"freshness":"FRESH","line1":"1 65416U 25192N   26263.72369261  .00013093  00000+0  43270-3 0  9990","line2":"2 65416  53.1606  45.8079 0001476  91.2377 268.8793 15.31717791 59251","mean_motion":15.31717791,"eccentricity":0.0001476,"inclination_deg":53.1606,"raan_deg":45.8079,"arg_perigee_deg":91.2377,"mean_anomaly_deg":268.8793,"bstar":0.0004327,"rev_number":5925,"period_min":94.012095991905,"perigee_km":469.676075277,"apogee_km":471.69784811049,"semimajor_km":6848.8239616937,"source":"CELESTRAK","updated_at":"2026-09-21T09:00:35.604700Z"}}